Regional Weather Roundup
Issued by NWS

Home | Current Version | Previous Version | Text Only | Print | Product List | Glossary On
Versions: 1 2 3 4 5 6 7 8 9 10 11 12 13 14 15 16 17 18 19 20 21 22 23 24 25 26 27 28 29 30 31 32 33 34 35 36 37 38 39 40 41 42 43 44 45 46 47 48 49 50
000
ASUS42 KFFC 040503
RWRGA
WEATHER ROUNDUP FOR GEORGIA
NATIONAL WEATHER SERVICE PEACHTREE CITY GA
100 AM EDT MON MAY 04 2015

NOTE: "FAIR" INDICATES FEW OR NO CLOUDS BELOW 12,000 FEET WITH NO
SIGNIFICANT WEATHER AND/OR OBSTRUCTIONS TO VISIBILITY.

* = USE WITH CAUTION. THE STATIONS MARKED WITH AN ASTERISK MAY NOT
REPORT WEATHER SUCH AS PRECIPITATION, FOG, OR THUNDER AND ARE NOT
QUALITY CONTROLLED BY NWS.

THE REMARK "TC" DENOTES TEMPERATURE READING IN DEGREES CELSIUS.

GAZ001>058-040600-
NORTH GEORGIA

CITY           SKY/WX    TMP DP  RH WIND       PRES   REMARKS
ATLANTA        PTCLDY    66  50  56 S3        30.20S
ATHENS         CLEAR     59  53  80 CALM      30.20S
CHAMBLEE       CLOUDY    60  51  72 CALM      30.21R
PEACHTREE CITY PTCLDY    56  54  93 CALM      30.21S
ROME           CLEAR     55  53  93 CALM      30.18S
WEST ATLANTA   PTCLDY    58  53  84 CALM      30.20S
GAINESVILLE    CLEAR     65  47  52 S3        30.23R
CARTERSVILLE   CLEAR     51  49  92 CALM      30.20S


CITY           SKY/WX    TMP DP  RH WIND       PRES   REMARKS
DALTON*        CLEAR     55  55 100 CALM      30.19S
MARIETTA       FAIR      61  53  74 CALM      30.20S
BLAIRSVILLE*     N/A     50  42  72 CALM      30.24S
$$

GAZ059>098-102>109-040600-
CENTRAL GEORGIA

CITY           SKY/WX    TMP DP  RH WIND       PRES   REMARKS
AUGUSTA-BUSH   CLEAR     61  51  70 S3        30.21S
AUGUSTA-DANIEL CLEAR     68  49  50 S7        30.22S
COLUMBUS       PTCLDY    65  53  65 CALM      30.19R
MACON          CLEAR     57  55  93 CALM      30.20S
ROBINS AFB     PTCLDY    58  57  94 SE3       30.20R


CITY           SKY/WX    TMP DP  RH WIND       PRES   REMARKS
LAGRANGE*      MOCLDY    59  57  93 CALM      30.20S
SYLVANIA*      CLEAR     59  53  82 CALM      30.24S
MILLEDGEVILLE* CLEAR     59  57  94 CALM      30.21S
$$

GAZ099>101-110>166-040600-
SOUTH GEORGIA

CITY           SKY/WX    TMP DP  RH WIND       PRES   REMARKS
SAVANNAH       CLEAR     62  55  77 CALM      30.23S
VALDOSTA       CLEAR     63  53  70 CALM      30.20S
ALMA           CLEAR     57  51  80 CALM      30.21F
ST SIMONS      CLEAR     63  55  75 CALM      30.22S
FT STEWART     CLEAR     58  52  81 CALM      30.21S
ALBANY         PTCLDY    63  55  75 SE6       30.21R
HUNTER AFB     CLEAR     60  59  94 CALM      30.20F
MOODY AFB      CLEAR     63  51  66 SE5       30.20R
BRUNSWICK      CLEAR     55  52  88 CALM      30.23S


CITY           SKY/WX    TMP DP  RH WIND       PRES   REMARKS
BAINBRIDGE*    CLEAR     63  57  82 CALM      30.19S
MOULTRIE*      CLEAR     64  54  68 CALM      30.21S
VIDALIA*       CLEAR     63  52  67 S3        30.22S
WAYCROSS*      CLEAR     67  55  65 S3        30.21F
DOUGLAS*       CLEAR     64  52  63 CALM      30.23S
$$


USA.gov is the U.S. government's official web portal to all federal, state and local government web resources and services.